This is the latest recevied weather packets stored in our database for station/object EA2RCU-15. If no packets are shown the sender has not sent any weather packets the latest 10 day(s).
| Time | Temp. | Humidity | Pressure | Rain* | Wind** | Luminosity | Snow |
|---|---|---|---|---|---|---|---|
| 1777730404 | 18.89° C | 68% | 999 hPa | 3.05 mm | - | - | - |
| 1777730105 | 18.33° C | 69% | 999 hPa | 3.05 mm | - | - | - |
| 1777729804 | 18.33° C | 67% | 999 hPa | 3.05 mm | - | - | - |
| 1777729504 | 19.44° C | 66% | 999 hPa | 3.05 mm | - | - | - |
| 1777729204 | 18.89° C | 69% | 1000 hPa | 3.05 mm | - | - | - |
| 1777728904 | 18.33° C | 71% | 1000 hPa | 3.05 mm | - | - | - |
| 1777728605 | 17.78° C | 70% | 1000 hPa | 3.05 mm | - | - | - |
| 1777728304 | 18.33° C | 68% | 999 hPa | 3.05 mm | - | - | - |
| 1777728004 | 17.78° C | 69% | 999 hPa | 3.05 mm | - | - | - |
| 1777727704 | 17.78° C | 65% | 999 hPa | 3.05 mm | - | - | - |
| 1777727404 | 17.78° C | 59% | 1000 hPa | 2.03 mm | - | - | - |
| 1777727106 | 18.33° C | 55% | 1000 hPa | 2.03 mm | - | - | - |
| 1777726806 | 20° C | 62% | 1000 hPa | 0 mm | - | - | - |
| 1777726506 | 21.11° C | 63% | 999 hPa | 0 mm | - | - | - |
| 1777726206 | 21.11° C | 58% | 999 hPa | 0 mm | - | - | - |
| 1777725906 | 21.67° C | 54% | 999 hPa | 0 mm | - | - | - |
| 1777725606 | 21.67° C | 52% | 999 hPa | 0 mm | - | - | - |
| 1777725306 | 22.22° C | 51% | 999 hPa | 0 mm | - | - | - |
| 1777725006 | 22.22° C | 51% | 999 hPa | 0 mm | - | - | - |
| 1777724706 | 22.22° C | 50% | 999 hPa | 0 mm | - | - | - |
| 1777724406 | 22.22° C | 49% | 999 hPa | 0 mm | - | - | - |
| 1777724106 | 22.78° C | 47% | 999 hPa | 0 mm | - | - | - |
| 1777723806 | 23.33° C | 46% | 999 hPa | 0 mm | - | - | - |
| 1777723506 | 23.89° C | 49% | 999 hPa | 0 mm | - | - | - |
| 1777723206 | 23.89° C | 54% | 999 hPa | 0 mm | - | - | - |
* Rain latest hour (hover to see other rain measurements)
** Current wind speed in m/s (hover to see current wind gust speed)